OE-11399 Weather Reports


Display with metric or nautical units.
time (UTC)temp
F
wind
direction
speed
MPH
gust
MPH
rain 1hr
in
rain 24hr
in
rain mn
in
humidity
%
barometer
mb
20260903091141 71 276 6.0 12.0 0.00 0.00 0.00 43 858.2
20260903090528 70 215 1.0 11.0 0.00 0.00 0.00 50 858.3
20260903085528 68 216 2.0 7.0 0.00 0.00 0.00 54 858.1
20260903084140 66 249 2.0 7.0 0.00 0.00 0.00 57 857.9
20260903083528 65 243 2.0 5.0 0.00 0.00 0.00 63 857.8
20260903082528 64 16 0.0 4.0 0.00 0.00 0.00 64 857.9
20260903081141 63 355 1.0 4.0 0.00 0.00 0.00 66 857.6
20260903080528 63 236 1.0 4.0 0.00 0.00 0.00 72 857.8
20260903075528 61 262 1.0 4.0 0.00 0.00 0.00 74 857.6
20260903074141 60 352 0.0 3.0 0.00 0.00 0.00 76 857.6
20260903073527 59 250 1.0 4.0 0.00 0.00 0.00 79 857.6
20260903072527 57 283 2.0 4.0 0.00 0.00 0.00 79 857.5
20260903071141 57 338 0.0 3.0 0.00 0.00 0.00 80 857.5
20260903070528 56 244 1.0 4.0 0.00 0.00 0.00 82 857.4
20260903065528 55 319 0.0 3.0 0.00 0.00 0.00 83 857.3
20260903064140 55 65 1.0 3.0 0.00 0.00 0.00 84 857.3
20260903063527 54 9 1.0 2.0 0.00 0.00 0.00 86 857.2
20260903062528 52 348 1.0 2.0 0.00 0.00 0.00 88 857.0
20260903061141 51 27 1.0 3.0 0.00 0.00 0.00 89 856.9
20260903060528 51 31 1.0 2.0 0.00 0.00 0.00 90 856.8
20260903055527 51 10 2.0 3.0 0.00 0.00 0.00 90 856.7
20260903054140 50 25 2.0 3.0 0.00 0.00 0.00 91 856.8
20260903053528 50 31 2.0 4.0 0.00 0.00 0.00 92 856.7
20260903052528 50 354 1.0 3.0 0.00 0.00 0.00 91 856.6
20260903051141 50 4 2.0 3.0 0.00 0.00 0.00 91 856.5
20260903050527 50 12 1.0 3.0 0.00 0.00 0.00 91 856.6
20260903045528 50 9 1.0 3.0 0.00 0.00 0.00 91 856.5
20260903044140 50 355 1.0 3.0 0.00 0.00 0.00 90 856.4
20260903043527 50 23 0.0 2.0 0.00 0.00 0.00 92 856.4
20260903042528 50 10 2.0 3.0 0.00 0.00 0.00 91 856.4
20260903041140 51 17 2.0 3.0 0.00 0.00 0.00 91 856.4
20260903040528 51 341 1.0 2.0 0.00 0.00 0.00 90 856.6
20260903035528 51 9 1.0 4.0 0.00 0.00 0.00 90 856.6
20260903034527 51 18 2.0 4.0 0.00 0.00 0.00 90 856.6
20260903033527 52 24 1.0 3.0 0.00 0.00 0.00 89 856.7
20260903032528 52 357 1.0 3.0 0.00 0.00 0.00 89 856.7
20260903031141 53 355 2.0 3.0 0.00 0.00 0.00 89 856.7
20260903030528 53 354 2.0 3.0 0.00 0.00 0.00 89 856.7
20260903025528 53 7 1.0 3.0 0.00 0.00 0.00 88 856.7
20260903024528 53 1 1.0 3.0 0.00 0.00 0.00 88 856.8
20260903023528 53 7 2.0 4.0 0.00 0.00 0.00 87 856.8
20260903022528 53 358 1.0 2.0 0.00 0.00 0.00 88 856.8
20260903021140 53 4 1.0 2.0 0.00 0.00 0.00 87 856.8
20260903020528 54 353 1.0 2.0 0.00 0.00 0.00 86 856.9
20260903015528 54 2 1.0 3.0 0.00 0.00 0.00 86 857.0
20260903014140 54 358 2.0 3.0 0.00 0.00 0.00 86 857.0
20260903013527 54 2 1.0 3.0 0.00 0.00 0.00 86 857.0
20260903012527 54 358 2.0 3.0 0.00 0.00 0.00 86 857.0
20260903011141 54 348 1.0 3.0 0.00 0.00 0.00 86 857.0
20260903010528 54 18 1.0 3.0 0.00 0.00 0.00 86 856.9
20260903005528 54 357 1.0 3.0 0.00 0.00 0.00 86 857.0
20260903004141 54 356 2.0 3.0 0.00 0.00 0.00 86 856.9
20260903003528 54 350 2.0 6.0 0.00 0.00 0.00 86 856.9
20260903002528 55 44 1.0 4.0 0.00 0.00 0.00 86 856.9
20260903001540 55 27 3.0 5.0 0.00 0.00 0.00 85 857.0
20260903000527 55 19 2.0 5.0 0.00 0.00 0.00 85 857.0
20260902235527 55 17 2.0 3.0 0.00 0.00 0.00 85 857.0
20260902234141 55 359 2.0 4.0 0.00 0.00 0.00 84 857.0
20260902233527 56 351 1.0 3.0 0.00 0.00 0.00 84 857.0
20260902232527 56 351 2.0 5.0 0.00 0.00 0.00 84 857.0
20260902231528 55 1 2.0 6.0 0.00 0.00 0.00 84 857.0
20260902230527 56 104 0.0 2.0 0.00 0.00 0.00 81 856.9
20260902225528 56 42 1.0 2.0 0.00 0.00 0.00 80 856.9
20260902224141 56 20 2.0 4.0 0.00 0.00 0.00 82 856.9
20260902223528 56 354 2.0 3.0 0.00 0.00 0.00 82 856.8
20260902222528 57 340 0.0 3.0 0.00 0.00 0.00 80 856.8
20260902221141 57 80 1.0 3.0 0.00 0.00 0.00 83 856.8
20260902220527 57 19 1.0 3.0 0.00 0.00 0.00 82 856.8
20260902215528 57 334 1.0 2.0 0.00 0.00 0.00 82 856.8
20260902214141 57 279 1.0 4.0 0.00 0.00 0.00 80 856.7
20260902213527 58 246 1.0 2.0 0.00 0.00 0.00 79 856.8
20260902211142 58 247 0.0 2.0 0.00 0.00 0.00 80 856.8
20260902210528 58 19 1.0 5.0 0.00 0.00 0.00 78 856.7
20260902205528 57 315 1.0 4.0 0.00 0.00 0.00 78 856.6
20260902204142 58 4 1.0 7.0 0.00 0.00 0.00 77 856.6
20260902203527 58 66 1.0 5.0 0.00 0.00 0.00 76 856.6
20260902202528 58 347 3.0 6.0 0.00 0.00 0.00 76 856.7
20260902201141 58 61 1.0 3.0 0.00 0.00 0.00 76 856.6
20260902200528 58 341 2.0 4.0 0.00 0.00 0.00 73 856.7
20260902195528 59 358 2.0 4.0 0.00 0.00 0.00 75 856.6
20260902194141 59 4 3.0 5.0 0.00 0.00 0.00 72 856.6
20260902193528 59 345 1.0 4.0 0.00 0.00 0.00 73 856.7
20260902192527 60 5 2.0 4.0 0.00 0.00 0.00 70 856.6
20260902191141 60 357 2.0 5.0 0.00 0.00 0.00 70 856.6
20260902190527 60 26 4.0 6.0 0.00 0.00 0.00 69 856.3
20260902185528 61 13 4.0 7.0 0.00 0.00 0.00 72 856.3
20260902184141 61 11 5.0 7.0 0.00 0.00 0.00 70 856.2
20260902183528 62 14 2.0 6.0 0.00 0.00 0.00 70 856.1
20260902182528 64 113 1.0 5.0 0.00 0.00 0.00 74 856.2
20260902181141 64 39 3.0 6.0 0.00 0.00 0.00 70 856.1
20260902180528 66 125 3.0 9.0 0.00 0.00 0.00 69 856.3
20260902175528 67 73 4.0 7.0 0.00 0.00 0.00 68 856.2
20260902174141 67 110 3.0 8.0 0.00 0.00 0.00 64 856.1
20260902173527 67 123 3.0 9.0 0.00 0.00 0.00 64 855.9
20260902172528 68 133 4.0 7.0 0.00 0.00 0.00 64 855.7
20260902171141 69 121 5.0 8.0 0.00 0.00 0.00 62 855.6
20260902170528 69 122 5.0 10.0 0.00 0.00 0.00 62 855.7
20260902165528 69 115 5.0 10.0 0.00 0.00 0.00 62 855.7
20260902164141 70 100 4.0 9.0 0.00 0.00 0.00 60 855.6
20260902163528 70 89 5.0 10.0 0.00 0.00 0.00 60 855.6
20260902162528 70 98 5.0 10.0 0.00 0.00 0.00 60 855.7
20260902161141 71 93 5.0 9.0 0.00 0.00 0.00 58 855.7
20260902160527 72 75 6.0 12.0 0.00 0.00 0.00 58 855.8
20260902155528 72 73 6.0 12.0 0.00 0.00 0.00 56 855.7
20260902154141 72 81 7.0 16.0 0.00 0.00 0.00 57 855.8
20260902153528 71 99 8.0 15.0 0.00 0.00 0.00 58 855.8
20260902152527 72 100 7.0 12.0 0.00 0.00 0.00 57 856.0
20260902151141 72 88 6.0 13.0 0.00 0.00 0.00 56 856.0
20260902150528 73 79 6.0 13.0 0.00 0.00 0.00 53 856.0
20260902145528 73 85 7.0 13.0 0.00 0.00 0.00 54 855.9
20260902144141 73 98 6.0 12.0 0.00 0.00 0.00 54 855.9
20260902143527 73 103 7.0 14.0 0.00 0.00 0.00 56 856.0
20260902142528 73 89 6.0 14.0 0.00 0.00 0.00 54 855.9
20260902141141 73 91 7.0 16.0 0.00 0.00 0.00 54 855.9
20260902140528 73 94 6.0 11.0 0.00 0.00 0.00 55 855.9
20260902135528 73 86 5.0 10.0 0.00 0.00 0.00 51 855.9
20260902134139 74 147 3.0 9.0 0.00 0.00 0.00 46 856.1
20260902133528 76 179 2.0 7.0 0.00 0.00 0.00 41 856.2
20260902132528 75 174 2.0 7.0 0.00 0.00 0.00 39 856.1
20260902131141 75 212 1.0 9.0 0.00 0.00 0.00 40 856.2
20260902130528 75 254 3.0 7.0 0.00 0.00 0.00 39 856.3
20260902125528 75 219 2.0 6.0 0.00 0.00 0.00 37 856.4
20260902124140 75 215 2.0 6.0 0.00 0.00 0.00 38 856.5
20260902123528 74 181 2.0 7.0 0.00 0.00 0.00 45 856.5
20260902122528 74 201 2.0 7.0 0.00 0.00 0.00 46 856.6
20260902121141 73 219 3.0 7.0 0.00 0.00 0.00 47 856.6
20260902120527 74 229 2.0 6.0 0.00 0.00 0.00 46 856.7
20260902115527 73 353 2.0 7.0 0.00 0.00 0.00 50 856.8
20260902114141 73 25 2.0 8.0 0.00 0.00 0.00 53 857.0
20260902113528 72 68 1.0 5.0 0.00 0.00 0.00 50 856.8
20260902112528 72 252 1.0 6.0 0.00 0.00 0.00 51 857.0
20260902111141 73 263 2.0 5.0 0.00 0.00 0.00 52 857.1
20260902110528 71 275 4.0 8.0 0.00 0.00 0.00 53 857.1
20260902105527 71 212 2.0 5.0 0.00 0.00 0.00 53 857.2
20260902104141 70 164 2.0 6.0 0.00 0.00 0.00 56 857.2
20260902103528 70 201 2.0 6.0 0.00 0.00 0.00 60 857.3
20260902102527 69 239 3.0 6.0 0.00 0.00 0.00 59 857.4
20260902101141 68 341 1.0 5.0 0.00 0.00 0.00 61 857.5
20260902100528 67 19 2.0 6.0 0.00 0.00 0.00 63 857.6
20260902095528 67 22 2.0 5.0 0.00 0.00 0.00 66 857.6
20260902094141 66 4 2.0 4.0 0.00 0.00 0.00 65 857.6
20260902093528 65 8 2.0 6.0 0.00 0.00 0.00 67 857.5